Regional Weather Roundup
Issued by NWS

Home | Current Version | Previous Version | Text Only | Print | Product List | Glossary Off
Versions: 1 2 3 4 5 6 7 8 9 10 11 12 13 14 15 16 17 18 19 20 21 22 23 24 25 26 27 28 29 30 31 32 33 34 35 36 37 38 39 40 41 42 43 44 45 46 47 48 49 50

000
ASUS43 KMKX 090900
RWRWI

WISCONSIN REGIONAL WEATHER ROUNDUP
NATIONAL WEATHER SERVICE MILWAUKEE/SULLIVAN WI
300 AM CST TUE FEB 09 2016

NOTE: "FAIR" INDICATES FEW OR NO CLOUDS BELOW 12,000 FEET WITH NO
SIGNIFICANT WEATHER AND/OR OBSTRUCTIONS TO VISIBILITY.

WIZ001-002-006>008-014>016-023>028-091000-
NORTHWEST WISCONSIN

CITY           SKY/WX    TMP DP  RH WIND       PRES   REMARKS
SUPERIOR ARPT  CLOUDY     6  -2  68 N10       30.02S WCI  -8
ASHLAND        CLOUDY     9   4  80 NW9       29.93R WCI  -4
HAYWARD        CLOUDY     4  -2  76 VRB3      29.91S
SIREN          PTCLDY     5  -2  72 N10       29.99R WCI -10
CUMBERLAND     PTCLDY     3  -2  78 NW16      29.93R WCI -16
RICE LAKE      PTCLDY     5  -2  75 NW8       29.95S WCI  -9
CHETEK         CLOUDY     6  -1  76 N8        29.93S WCI  -7
LADYSMITH      LGT SNOW   7   2  78 NW14      29.88S WCI  -9
EAU CLAIRE     NOT AVBL
MENOMONIE      PTCLDY     8  -1  67 NW10      29.96R WCI  -7
NEW RICHMOND   MOCLDY     8   1  73 NW17      29.98R WCI -11
OSCEOLA        MOCLDY     8   2  74 NW13G18   30.02R WCI  -8
$$

WIZ003>005-009-010-017-018-091000-
NORTH CENTRAL WISCONSIN

CITY           SKY/WX    TMP DP  RH WIND       PRES   REMARKS
MANITOWISH WTR LGT SNOW  10   6  82 N9        29.76S WCI  -3
ARBOR VITAE    LGT SNOW  12   7  80 N13G20    29.74S WCI  -3
WOODRUFF       LGT SNOW  12   7  80 N13G20    29.74S WCI  -3
RHINELANDER    CLOUDY     9   4  80 VRB3      29.73S
EAGLE RIVER    LGT SNOW  10   4  76 N12       29.72S WCI  -4
LAND O LAKES   LGT SNOW  11   6  82 N14       29.73S WCI  -5
PHILLIPS       LGT SNOW   7   3  82 NW8       29.79S WCI  -5
TOMAHAWK       LGT SNOW   8   3  82 NW8       29.77S WCI  -5
MEDFORD        LGT SNOW   7   2  82 NW13      29.79S WCI  -9
MERRILL        FLURRIES   8   3  80 NW6       29.78S WCI  -2
$$

WIZ029-030-035-036-043>047-091000-
CENTRAL WISCONSIN

CITY           SKY/WX    TMP DP  RH WIND       PRES   REMARKS
WAUSAU         CLOUDY     9   2  73 NW9       29.77R WCI  -4
MOSINEE        PTCLDY     9   5  85 NW13      29.79S WCI  -7
MARSHFIELD     CLOUDY     8   0  69 NW16      29.80R WCI -10
STEVENS POINT  PTCLDY     8   2  77 NW9       29.80R WCI  -6
WAUPACA        FLURRIES  14   7  73 NW10      29.79S WCI   1
WAUTOMA        NOT AVBL
WISC RAPIDS    CLEAR      8   0  69 NW10      29.83S WCI  -6
CAMP DOUGLAS   FLURRIES   9   5  85 NW13      29.85R WCI  -7
$$

WIZ011>013-019>022-031-037>040-048>050-091000-
NORTHEAST WISCONSIN

CITY           SKY/WX    TMP DP  RH WIND       PRES   REMARKS
ANTIGO         FLURRIES   7   3  85 NW9       29.72S WCI  -7
SHAWANO        FLURRIES  16  10  79 NW6       29.78S WCI   7
OCONTO         CLOUDY    16   7  66 NW9G18    29.76S WCI   5
STURGEON BAY   CLOUDY    16   7  67 NW15      29.74F WCI   1
GREEN BAY      CLOUDY    15  11  83 NW10      29.76S WCI   2
MANITOWOC      NOT AVBL
APPLETON       FLURRIES  14   9  79 W10       29.74S WCI   1
CLINTONVILLE   LGT SNOW  14   9  79 NW9       29.77S WCI   2
OSHKOSH        LGT SNOW  14   8  77 NW16      29.76S WCI  -2
$$

WIZ032>034-041-042-053>061-091000-
SOUTHWEST WISCONSIN

CITY           SKY/WX    TMP DP  RH WIND       PRES   REMARKS
LA CROSSE      MOCLDY     9   0  67 N9        29.93R WCI  -4
SPARTA         LGT SNOW  10   4  78 NW10      29.90R WCI  -4
VIROQUA        CLOUDY     9   2  75 NW18      29.84S WCI -10
BOSCOBEL       PTCLDY    13   4  67 N12G17    29.89S WCI  -1
PRAIRIE DU CHI CLOUDY    13   2  62 NW13G18   29.90S WCI  -1
PLATTEVILLE    CLEAR     12   8  83 NW10      29.83R WCI  -1
$$

WIZ056-057-062-063-064-067-068-091000-
SOUTH CENTRAL WISCONSIN

CITY           SKY/WX    TMP DP  RH WIND       PRES   REMARKS
REEDSBURG      PTCLDY    10   4  75 NW13      29.83R WCI  -5
BARABOO/DELLS  CLOUDY    10   4  75 NW12G22   29.81S WCI  -4
LONE ROCK      NOT AVBL
MINERAL POINT  FLURRIES  14   9  79 NW12G18   29.80S WCI   0
MADISON        LGT SNOW  12   7  80 N13G22    29.79S WCI  -3
MIDDLETON      CLOUDY    15  10  82 NW14G21   29.80S WCI   0
WATERTOWN      LGT SNOW  14  12  91 NW12G18   29.76S WCI   1
MONROE         LGT SNOW  14  10  85 NW12G17   29.77S WCI   0
JANESVILLE     LGT SNOW  19  12  73 NW12      29.77S WCI   7
$$

WIZ051-052-058>065-066-070>072-091000-
SOUTHEAST WISCONSIN

CITY           SKY/WX    TMP DP  RH WIND       PRES   REMARKS
MILWAUKEE      LGT SNOW  18  13  80 NW12      29.73R WCI   5
WAUKESHA       CLOUDY    14  10  85 NW10      29.74S WCI   1
MILWAUKEE/TIMM LGT SNOW  18  12  79 NW14      29.74S WCI   4
RACINE         FLURRIES  19  12  74 NW12      29.73S WCI   7
BURLINGTON     FLURRIES  15  10  82 NW13      29.74S WCI   1
KENOSHA        FLURRIES  18  12  77 NW10      29.72S WCI   6
FOND DU LAC    LGT SNOW  15  10  80 NW20      29.76S WCI  -2
SHEBOYGAN      LGT SNOW  16  11  80 NW8       29.73S WCI   5
WEST BEND      LGT SNOW  18  12  79 NW14G20   29.73S WCI   4
JUNEAU         FLURRIES  13   9  83 NW14G21   29.77R WCI  -2
$$

LSZ147-162-091000-
LAKE SUPERIOR

STATION/POSITION TIME  TEMP    WIND        PRES    WAVE
                       AIR SEA DIR/SP/G            HT/PER
                 (UTC) (F)     (DEG/KT/KT) (MB)    (FT/S)
DEVILS ISLAND    0800   12     340/ 24/ 31 1015.0R
PORT WING        0800   12     330/ 18/ 22 1015.2R
SAXON HARBOR     0800   16                 1011.9S
$$

LMZ867-665-643>646-091000-
LAKE MICHIGAN

STATION/POSITION TIME  TEMP    WIND        PRES    WAVE
                       AIR SEA DIR/SP/G            HT/PER
                 (UTC) (F)     (DEG/KT/KT) (MB)    (FT/S)
CHAMBERS ISLAND  0800   16     310/ 16/ 22 1006.8F
NORTHPORT PIER   0805   17     320/ 21     1006.4R
ALGOMA LAKESHORE 0811          320/ 10/ 14   N/A
KEWAUNEE LAKESHO 0800   16     330/  6/ 11 1006.4R
SHEBOYGAN LAKESH 0800   19     330/ 14/ 16 1008.0R
PORT WASHINGTON  0840   19     320/ 11/ 16 1008.1R
MILWAUKEE LAKESH 0810   19     310/ 11/ 13   N/A
KENOSHA   LAKESH 0800   19     310/ 16/ 20 1006.4S
$$

TC  - TEMPERATURE IN CELSIUS
VSB - VISIBILITY IN STATUTE MILES
WCI - WIND CHILL INDEX
HX  - HEAT INDEX





USA.gov is the U.S. government's official web portal to all federal, state and local government web resources and services.